Weather in Zelenogradsk

Russia / Kaliningrad Oblast     54°57′35″N   20°28′31″E
temp.,
°C
wind,
m/s
gust,
m/s
humid.,
%
clouds,
%
prec.,
mm/h
press.,
hPa
HPBL,
m
17 may, tue
tue1723:00+8nne78655 0.0 1022429
02:00+8nne67680 0.0 1022398
05:00+9nne56660 0.0 1022409
08:00+9n56630 0.0 1023470
11:00+9n67600 0.0 1023640
14:00+9n79645 0.0 1024959
17:00+9nnw810620 0.0 10241002
20:00+8n1012670 0.0 1025836
18 may, wed
wed1823:00+7n910725 0.0 1026826
02:00+7nne78705 0.0 1027772
05:00+7nne55725 0.0 1028734
08:00+8nnw44739 0.0 1030734
11:00+8nnw34743 0.0 1030525
14:00+8nw44690 0.0 1030399
17:00+9nw33650 0.0 1029251
20:00+9sw1160100 0.0 102872
19 may, thu
thu1923:00+8ssw55697 0.0 1027102
02:00+9ssw596377 0.0 1026147
05:00+9sw6107681 0.0 1025158
08:00+11sw6971100 0.0 1025166
11:00+13sw5761100 0.0 102573
14:00+15sw5659100 0.0 102465
17:00+16sw5664100 0.0 102266
20:00+15s5575100 0.0 102031
20 may, fri
fri2023:00+14ssw6975100 0.0 101884
02:00+13ssw6972100 0.0 101678
05:00+14sw71073100 0.0 101493
08:00+12w81185100 0.0 1015151
11:00+11wnw669613 0.0 1016127
14:00+11wnw579386 0.0 1016133
17:00+11wnw4594100 0.0 101588
20:00+9w339896 0.0 101495
21 may, sat
sat2123:00+10wsw3396100 0.0 1013103
02:00+10wsw2294100 0.0 101021
05:00+11w3492100 0.0 100959
08:00+11w5786100 0.3 1009120
11:00+10wnw6789100 0.1 1009266
14:00+11wnw10149241 0.1 1010545
17:00+11w914887 0.0 1009412
20:00+11w6109297 0.0 1009261